Temperature
6 6 6 7 7 7 7 7 7 7 7 8 8 8 8 8 8 8 7 7 7 7 8 8 8 8 8 8 8 8 9 9 9 9 9 10 10 10
5 6 6 6 6 6 6 7 7 7 7 7 7 7 7 7 7 7 7 7 7 7 7 7 7 7 7 7 8 8 8 8 8 9 9 9 9 9
4 4 5 5 5 5 6 6 6 6 6 6 7 7 7 7 7 7 7 7 6 6 6 6 6 6 6 7 7 7 7 8 8 8 8 8 8 9
2 3 3 3 4 4 4 5 5 5 5 6 6 6 6 6 6 6 6 6 6 6 6 6 6 5 6 6 6 6 7 7 7 7 7 8 8 8
1 2 2 2 2 2 3 4 4 4 5 5 5 5 5 6 6 6 6 6 6 5 5 5 5 5 5 5 5 5 6 6 6 6 7 7 7 7
0 0 0 0 0 1 2 2 3 3 3 4 4 5 5 5 5 5 5 5 5 5 5 5 4 4 4 4 4 5 5 5 5 6 6 6 7 7
-1 -1 -1 -1 -0 -0 0 1 1 2 2 3 3 3 4 4 4 4 4 4 4 4 4 4 4 4 3 4 4 4 4 4 4 5 5 5 6 6
-3 -2 -2 -2 -2 -2 -1 -1 -0 0 1 1 2 2 3 3 3 4 4 3 3 3 3 3 3 3 3 3 3 3 3 3 4 4 4 4 5 5
-5 -4 -4 -4 -4 -3 -3 -3 -2 -2 -1 -0 0 1 1 2 2 2 3 3 2 2 2 2 2 2 2 2 2 2 2 2 3 3 3 3 3 4
-6 -6 -6 -6 -5 -5 -5 -4 -4 -4 -3 -2 -2 -1 -1 -0 0 1 1 1 0 0 0 0 1 1 1 1 1 1 1 1 1 1 1 2 2 2
-7 -7 -7 -7 -7 -6 -6 -6 -6 -5 -5 -5 -4 -4 -3 -3 -2 -1 -1 -1 -1 -1 -1 -1 -0 0 0 -0 -0 -0 -0 -0 -0 -0 0 0 0 1
-8 -8 -8 -8 -8 -8 -7 -7 -7 -6 -6 -6 -6 -6 -5 -5 -4 -4 -3 -3 -3 -3 -3 -3 -2 -2 -1 -1 -1 -1 -1 -1 -1 -1 -0 -0 0 0
-8 -8 -8 -9 -9 -9 -8 -8 -8 -7 -7 -7 -7 -7 -7 -6 -6 -6 -5 -5 -5 -5 -5 -4 -4 -4 -3 -2 -2 -2 -2 -1 -1 -1 -1 -0 -0 0
-9 -9 -9 -9 -9 -9 -9 -9 -9 -8 -8 -8 -8 -8 -8 -7 -7 -7 -7 -6 -6 -6 -6 -6 -5 -5 -5 -4 -3 -2 -2 -2 -2 -1 -1 -0 -0 -0
-10 -10 -10 -10 -10 -9 -10 -10 -9 -9 -9 -9 -9 -9 -9 -8 -8 -8 -7 -7 -7 -7 -7 -7 -7 -7 -6 -6 -5 -4 -3 -3 -3 -2 -2 -1 -1 -1
-10 -10 -10 -10 -10 -10 -10 -10 -10 -10 -10 -10 -10 -10 -10 -9 -9 -9 -8 -8 -8 -8 -9 -9 -8 -8 -8 -7 -6 -6 -6 -5 -4 -4 -3 -2 -2 -2
-11 -11 -11 -11 -11 -11 -11 -11 -11 -11 -11 -11 -11 -11 -11 -11 -10 -10 -10 -9 -9 -9 -9 -10 -10 -9 -8 -8 -7 -6 -6 -6 -6 -6 -5 -3 -2 -2
-11 -12 -12 -12 -12 -12 -12 -12 -12 -12 -13 -13 -13 -12 -12 -12 -12 -11 -11 -11 -10 -10 -10 -10 -10 -9 -9 -8 -8 -7 -7 -7 -6 -6 -6 -5 -3 -2
-13 -13 -13 -13 -13 -13 -13 -13 -14 -14 -14 -14 -14 -14 -13 -13 -13 -13 -12 -12 -12 -11 -11 -12 -12 -12 -11 -10 -9 -8 -8 -7 -7 -6 -6 -6 -5 -4
-14 -14 -14 -14 -14 -14 -14 -14 -14 -14 -14 -14 -14 -14 -14 -14 -14 -14 -14 -13 -13 -12 -12 -12 -13 -13 -13 -13 -12 -8 -8 -9 -9 -8 -7 -6 -6 -5
-15 -15 -15 -15 -15 -15 -15 -15 -15 -15 -15 -15 -15 -15 -15 -15 -15 -15 -14 -14 -14 -14 -13 -12 -13 -13 -14 -13 -12 -10 -8 -9 -9 -10 -9 -8 -8 -6
-15 -15 -15 -15 -15 -15 -15 -15 -15 -15 -15 -15 -15 -15 -15 -15 -15 -15 -15 -15 -15 -14 -14 -13 -13 -13 -13 -13 -13 -12 -9 -8 -8 -9 -9 -9 -10 -10
-15 -16 -16 -16 -16 -16 -16 -16 -16 -16 -16 -16 -16 -16 -16 -16 -16 -15 -15 -15 -15 -15 -14 -14 -13 -13 -13 -13 -13 -12 -11 -9 -9 -8 -7 -7 -8 -8
Wind_Speed
1 2 2 2 3 3 4 4 5 4 3 3 2 2 3 7 13 13 13 14 13 11 9 7 6 5 4 4 4 4 4 4 4 5 6 7 8 9
2 2 1 0 1 2 3 3 4 5 5 5 4 3 5 5 12 13 15 16 14 11 10 8 6 5 5 5 5 5 5 5 5 5 6 7 8 9
2 3 3 2 1 1 1 2 4 4 5 5 3 2 5 6 5 7 11 12 11 13 12 9 6 5 6 6 7 7 7 7 7 6 6 7 8 9
1 2 3 3 3 2 1 1 2 3 5 6 4 3 4 5 6 6 5 8 9 13 13 10 8 8 8 9 10 10 10 9 8 7 7 7 7 8
3 4 3 3 2 2 2 2 1 1 3 4 4 3 2 2 4 4 4 3 6 11 13 12 11 11 10 10 10 11 12 12 10 9 7 6 7 8
6 6 5 3 3 3 3 3 2 2 1 3 3 3 2 2 5 5 4 3 3 5 8 10 10 9 9 8 8 10 11 11 11 10 8 7 8 9
9 9 9 10 7 5 5 4 4 3 2 1 2 2 2 3 4 4 4 4 4 3 2 3 4 4 5 7 7 9 10 10 10 10 9 9 9 11
9 9 9 11 13 14 13 11 9 5 3 2 1 2 2 2 2 3 4 4 3 2 2 2 2 2 2 4 6 7 9 11 11 12 11 11 11 11
6 6 6 7 9 8 10 12 12 13 11 5 4 4 3 3 2 3 3 3 3 1 2 1 2 2 2 4 6 7 10 11 11 12 12 12 13 13
4 5 6 7 7 7 6 7 9 9 9 7 5 4 4 4 4 3 3 4 4 4 2 1 2 2 2 4 7 9 11 11 11 12 13 13 14 15
4 5 6 6 10 10 7 7 8 7 10 11 10 9 7 6 4 3 3 3 3 3 4 2 2 3 3 2 5 10 10 10 12 14 15 15 15 14
4 5 7 7 9 9 6 5 6 5 5 7 9 12 12 13 13 7 3 3 2 2 3 3 2 3 3 3 2 5 7 9 14 16 16 14 13 10
3 3 4 8 8 7 6 4 6 6 5 7 7 8 8 8 8 8 7 5 3 2 2 2 1 2 2 3 4 4 4 5 10 12 13 12 13 11
1 1 2 6 7 7 5 7 10 9 6 6 7 7 7 6 6 6 8 7 6 3 3 2 1 0 1 2 4 3 4 6 6 5 6 12 14 15
2 3 1 5 7 5 8 11 9 6 6 6 6 6 5 5 5 5 6 7 6 5 6 5 2 1 2 3 4 3 4 4 3 3 5 7 6 6
4 4 6 5 5 6 8 7 6 6 6 5 4 4 4 5 5 5 4 5 3 3 4 6 4 2 3 5 6 6 4 4 4 6 7 6 5 7
0 2 2 3 4 4 5 5 5 5 5 4 4 4 4 4 4 4 3 3 2 2 3 3 5 7 6 6 5 7 5 5 5 5 5 7 7 6
5 4 4 4 3 3 3 3 3 4 3 3 3 3 3 3 3 3 3 2 3 3 3 3 3 3 3 4 7 7 5 4 4 5 5 8 10 7
7 5 4 3 2 1 1 1 1 2 2 2 2 1 1 2 2 3 3 3 3 4 3 3 3 3 4 4 5 6 6 7 8 9 8 7 11 11
5 4 4 3 1 0 1 1 1 2 1 1 1 0 1 1 2 2 3 4 5 5 4 2 2 3 5 6 6 8 13 10 9 10 10 9 9 13
4 4 4 3 3 2 1 1 1 2 2 2 2 2 2 2 3 3 3 7 6 4 6 5 5 9 6 5 7 7 7 13 13 11 11 11 12 11
3 3 3 3 2 2 2 2 2 3 3 3 3 3 3 3 4 5 5 4 5 5 7 7 6 5 3 5 8 9 11 12 13 19 19 17 12 8
3 3 3 3 3 3 3 3 4 4 4 4 4 4 4 4 5 5 6 6 6 6 7 7 5 4 5 6 8 10 12 14 11 10 11 17 21 25
Wind_Direction
124 154 169 190 181 169 156 150 148 168 227 259 247 214 183 172 168 160 160 162 157 153 147 136 121 99 72 48 31 14 359 350 346 339 330 325 320 314
62 65 50 301 215 182 171 166 159 162 200 229 226 211 185 186 184 168 167 164 161 160 157 146 129 98 65 40 24 10 357 349 339 325 316 315 316 319
43 57 39 23 3 320 162 164 173 163 188 229 228 208 174 176 169 176 166 153 158 160 155 145 121 83 53 33 19 6 356 348 342 333 324 316 313 316
109 79 46 41 32 8 39 140 171 181 181 207 220 191 188 186 169 163 155 153 148 149 141 126 102 80 65 52 38 24 11 358 348 339 332 327 324 320
101 101 86 89 81 59 60 67 95 168 176 190 211 192 175 156 141 129 123 115 123 128 121 108 96 83 68 54 42 28 15 5 353 340 332 329 328 324
58 66 70 90 112 105 81 56 54 82 141 180 194 183 165 150 146 145 130 107 91 91 109 103 88 74 59 43 33 24 16 9 359 344 330 320 317 316
44 42 42 46 63 75 82 61 52 52 58 144 175 162 153 149 162 150 141 123 71 52 87 74 64 51 33 21 23 28 31 29 24 14 360 345 332 322
40 35 37 38 35 37 46 51 52 53 41 39 51 127 105 91 108 131 135 140 135 29 67 47 51 35 3 3 21 36 47 49 42 34 25 15 3 350
49 44 41 39 45 33 33 42 44 50 54 52 45 43 56 31 69 88 88 94 110 89 69 48 25 357 337 9 31 52 53 42 32 23 17 9 1 350
66 65 54 36 52 50 50 60 57 50 56 60 70 62 63 53 57 81 93 95 80 40 42 112 25 341 344 2 47 53 36 27 20 12 4 355 348 341
71 78 67 38 45 53 58 66 60 44 49 63 71 71 75 95 105 94 99 105 106 60 15 76 31 340 328 351 40 27 18 15 9 357 347 341 337 334
48 50 59 48 39 58 57 63 69 52 46 64 70 66 60 59 61 56 59 93 104 100 21 47 34 8 341 333 345 355 357 358 351 342 337 334 334 333
62 40 24 35 33 50 60 41 71 79 64 78 77 67 60 53 46 42 41 49 69 83 47 44 54 27 347 318 316 317 327 333 330 324 326 330 333 335
42 360 358 37 43 53 54 60 70 72 68 74 71 61 53 46 39 39 44 47 50 52 18 29 44 201 294 289 284 301 308 302 301 302 310 324 326 324
328 305 11 55 57 40 58 73 69 64 67 71 69 59 47 40 37 31 27 25 28 44 47 36 18 315 248 252 276 287 307 296 291 298 309 310 304 307
358 7 28 49 70 72 71 65 58 71 77 72 66 50 39 42 39 25 16 10 16 14 3 357 348 310 263 259 265 270 260 274 299 303 300 293 286 291
24 60 47 50 76 81 77 72 66 66 71 67 57 47 41 37 27 14 6 5 358 333 322 325 320 296 263 256 266 268 268 266 266 282 299 304 294 286
64 60 60 63 71 75 78 77 73 80 81 78 66 49 38 22 8 354 353 347 325 312 306 303 314 319 308 282 244 263 276 278 287 298 301 303 302 295
50 45 43 46 60 80 98 110 111 105 106 92 85 60 20 5 353 345 341 328 311 300 295 298 320 335 330 313 299 290 304 309 308 304 297 293 296 299
32 28 19 11 6 354 184 174 166 159 153 151 156 201 293 307 311 313 312 304 305 305 304 304 299 310 308 306 297 288 291 288 291 296 299 296 289 292
21 18 11 4 359 348 316 250 215 220 219 212 224 237 245 254 270 280 283 299 305 303 298 292 276 305 304 291 282 280 281 286 289 289 294 297 299 298
340 338 335 334 334 323 305 288 270 260 251 241 243 244 243 243 254 262 262 266 266 266 274 279 278 286 265 269 279 284 292 297 295 294 285 278 283 289
292 294 296 300 296 285 272 267 262 259 252 245 245 244 239 241 245 249 254 258 262 268 276 283 285 270 264 266 277 283 286 294 301 300 291 288 286 283
Height
1421 1424 1426 1429 1431 1433 1434 1436 1439 1440 1443 1445 1448 1450 1452 1455 1457 1460 1462 1465 1466 1468 1469 1471 1473 1475 1476 1477 1479 1480 1482 1483 1485 1486 1488 1489 1491 1492
1417 1419 1422 1425 1427 1429 1430 1432 1435 1437 1439 1442 1445 1447 1449 1452 1455 1457 1460 1462 1464 1465 1467 1468 1469 1471 1472 1473 1475 1476 1477 1479 1480 1481 1483 1484 1485 1487
1412 1414 1417 1419 1422 1424 1426 1428 1430 1432 1434 1438 1441 1443 1446 1448 1451 1454 1457 1459 1461 1462 1464 1465 1466 1467 1468 1470 1471 1472 1473 1474 1475 1476 1477 1479 1480 1481
1407 1409 1411 1414 1417 1419 1421 1423 1425 1427 1430 1433 1436 1439 1441 1444 1447 1450 1452 1455 1457 1459 1461 1462 1463 1464 1465 1466 1467 1468 1469 1470 1470 1471 1472 1473 1474 1475
1401 1403 1406 1408 1411 1414 1416 1418 1420 1422 1424 1427 1430 1434 1436 1439 1442 1445 1447 1450 1452 1454 1456 1458 1459 1461 1462 1463 1464 1464 1465 1465 1466 1466 1467 1468 1469 1470
1398 1399 1401 1404 1406 1409 1410 1412 1414 1416 1418 1421 1425 1428 1430 1433 1436 1438 1441 1445 1447 1450 1451 1453 1455 1457 1458 1459 1460 1460 1460 1460 1461 1461 1462 1463 1463 1464
1396 1397 1399 1400 1402 1404 1405 1406 1408 1410 1413 1415 1418 1421 1424 1427 1429 1432 1436 1438 1441 1443 1445 1448 1450 1452 1453 1454 1455 1455 1454 1455 1455 1456 1457 1457 1458 1458
1395 1396 1397 1398 1399 1400 1401 1402 1404 1405 1407 1410 1413 1416 1418 1421 1424 1427 1430 1432 1434 1438 1440 1442 1445 1447 1448 1449 1449 1448 1448 1449 1449 1450 1451 1451 1452 1452
1396 1396 1397 1397 1398 1398 1399 1400 1401 1401 1404 1406 1408 1410 1412 1415 1418 1420 1423 1426 1428 1430 1434 1436 1439 1441 1443 1443 1442 1442 1442 1442 1443 1443 1444 1444 1445 1445
1397 1397 1398 1398 1398 1397 1398 1398 1399 1400 1401 1403 1405 1406 1408 1410 1412 1415 1416 1420 1422 1425 1428 1431 1432 1435 1436 1436 1435 1435 1436 1436 1437 1437 1437 1438 1438 1438
1398 1398 1398 1398 1398 1397 1397 1398 1398 1399 1400 1401 1402 1403 1404 1406 1408 1411 1413 1416 1418 1420 1422 1425 1426 1428 1429 1429 1429 1430 1430 1431 1431 1431 1431 1431 1431 1430
1399 1399 1399 1399 1398 1396 1396 1397 1397 1398 1399 1400 1401 1402 1403 1405 1406 1408 1410 1413 1414 1416 1418 1420 1421 1422 1423 1423 1424 1425 1425 1425 1425 1425 1424 1424 1424 1423
1400 1400 1400 1399 1398 1397 1396 1396 1397 1397 1398 1399 1400 1401 1403 1404 1405 1407 1409 1410 1412 1413 1415 1416 1417 1418 1419 1419 1420 1421 1421 1420 1420 1419 1418 1418 1417 1416
1400 1400 1399 1399 1398 1397 1397 1397 1396 1397 1398 1399 1400 1401 1402 1403 1405 1406 1407 1408 1409 1410 1411 1413 1413 1414 1414 1413 1414 1415 1415 1414 1413 1412 1412 1411 1411 1410
1399 1399 1399 1398 1397 1397 1397 1397 1397 1397 1398 1398 1399 1400 1401 1402 1404 1405 1406 1406 1407 1408 1408 1409 1409 1409 1409 1409 1408 1408 1407 1408 1407 1406 1405 1405 1404 1403
1398 1397 1397 1397 1397 1397 1397 1397 1397 1397 1397 1398 1399 1399 1400 1401 1402 1402 1404 1404 1405 1406 1406 1406 1405 1405 1405 1404 1403 1402 1402 1401 1401 1400 1398 1398 1397 1396
1396 1395 1396 1396 1396 1397 1397 1397 1397 1397 1397 1397 1398 1398 1399 1399 1400 1400 1401 1402 1402 1403 1403 1402 1402 1401 1400 1400 1399 1398 1397 1396 1395 1393 1391 1389 1389 1389
1394 1394 1394 1395 1396 1396 1396 1396 1396 1396 1396 1396 1396 1397 1397 1397 1397 1398 1398 1398 1398 1399 1399 1398 1397 1396 1396 1395 1395 1393 1392 1390 1389 1387 1385 1382 1379 1381
1393 1393 1394 1395 1395 1395 1395 1395 1395 1395 1395 1395 1395 1395 1395 1395 1395 1395 1395 1395 1395 1395 1394 1394 1393 1391 1391 1389 1389 1390 1388 1385 1382 1381 1379 1376 1372 1371
1394 1393 1394 1394 1394 1394 1394 1394 1393 1393 1393 1393 1393 1392 1392 1392 1392 1391 1391 1391 1390 1390 1390 1390 1389 1388 1387 1386 1383 1383 1384 1381 1377 1374 1373 1370 1367 1365
1393 1393 1392 1392 1392 1392 1391 1391 1391 1391 1391 1390 1390 1390 1389 1389 1388 1388 1388 1387 1387 1385 1385 1385 1385 1385 1383 1381 1379 1376 1378 1377 1374 1371 1368 1365 1361 1357
1392 1391 1390 1390 1389 1388 1388 1388 1388 1387 1387 1387 1386 1386 1386 1385 1385 1384 1383 1383 1382 1381 1380 1380 1380 1379 1378 1376 1374 1371 1370 1370 1369 1368 1366 1363 1359 1353
1390 1389 1388 1387 1386 1385 1384 1384 1383 1383 1383 1382 1382 1381 1381 1381 1380 1379 1379 1378 1377 1376 1375 1374 1374 1373 1372 1371 1369 1366 1365 1363 1361 1359 1359 1359 1356 1352